Date String (YYYY-MM-DD hh:mm:ss) UTC,Instrument flags,Ambient pressure (hPa),Sample flow (lpm),Bypass flow (lpm),Sample temperature (°C),Ambient temperature (°C),ASC tube jacket temperature (°C),LED temperature (°C),Box temperature (°C),Sample RH (%),Span deviation,Mass concentration (μg/m³),Mass concentration (μg/m³),Mass concentration (μg/m³)
DateTimeUTC,F1_M11,P_M11,Q1_M11,Q2_M11,T1_M11,T2_M11,T3_M11,T4_M11,T5_M11,U1_M11,ZSPAN_M11,X0_M11,X2_M11,X1_M11
2023-01-21 14:00:00,,0826.0,5.01,0.00,22.2,20.5,00.0,31.0,23.8,09.3,0000.0,0007.06,0004.53,0004.32
2023-01-21 14:01:00,,0826.0,5.00,0.00,22.1,20.4,00.0,31.0,23.7,09.4,0000.0,0007.20,0004.55,0004.32
2023-01-21 14:02:00,,0826.0,5.01,0.00,22.1,20.4,00.0,31.0,23.7,09.4,0000.0,0007.42,0004.55,0004.32
2023-01-21 14:03:00,,0826.0,5.01,0.00,22.1,21.1,00.0,31.0,23.8,09.4,0000.0,0007.64,0004.53,0004.32
2023-01-21 14:04:00,,0826.0,5.00,0.00,22.2,22.1,00.0,31.0,24.1,09.3,0000.0,0007.45,0004.53,0004.33
2023-01-21 14:05:00,,0826.0,5.00,0.00,22.3,22.9,00.0,31.0,24.3,09.3,0000.0,0007.49,0004.54,0004.32
2023-01-21 14:06:00,,0826.0,4.99,0.00,22.4,22.6,00.0,31.0,24.3,09.3,0000.0,0007.61,0004.55,0004.31
2023-01-21 14:07:00,,0826.0,4.99,0.00,22.4,22.1,00.0,31.1,24.3,09.3,0000.0,0007.90,0004.54,0004.30
2023-01-21 14:08:00,,0825.9,5.01,0.00,22.4,21.6,00.0,31.1,24.2,09.4,0000.0,0008.13,0004.55,0004.30
2023-01-21 14:09:00,,0825.9,4.96,0.00,22.4,21.2,00.0,31.1,24.1,09.3,0000.0,0008.19,0004.55,0004.30
2023-01-21 14:10:00,,0825.9,4.99,0.00,22.3,20.9,00.0,31.1,24.0,09.3,0000.0,0008.15,0004.53,0004.30
2023-01-21 14:11:00,,0825.9,4.99,0.00,22.3,20.8,00.0,31.1,23.9,09.4,0000.0,0008.17,0004.53,0004.30
2023-01-21 14:12:00,,0825.9,5.00,0.00,22.3,20.6,00.0,31.1,23.9,09.4,0000.0,0008.08,0004.50,0004.30
2023-01-21 14:13:00,,0826.0,5.01,0.00,22.2,20.5,00.0,31.1,23.8,09.4,0000.0,0008.00,0004.48,0004.30
2023-01-21 14:14:00,,0825.9,5.00,0.00,22.2,20.4,00.0,31.1,23.8,09.4,0000.0,0007.39,0004.49,0004.30
2023-01-21 14:15:00,,0825.9,5.00,0.00,22.2,20.4,00.0,31.0,23.8,09.4,0000.0,0007.46,0004.50,0004.30
2023-01-21 14:16:00,,0825.9,5.00,0.00,22.1,20.7,00.0,31.0,23.8,09.4,0000.0,0007.62,0004.51,0004.30
2023-01-21 14:17:00,,0825.9,5.02,0.00,22.2,21.7,00.0,31.0,24.0,09.4,0000.0,0007.56,0004.52,0004.30
2023-01-21 14:18:00,,0826.0,5.01,0.00,22.3,22.8,00.0,31.0,24.3,09.4,0000.0,0007.08,0004.51,0004.30
2023-01-21 14:19:00,,0826.1,4.99,0.00,22.4,22.8,00.0,31.1,24.4,09.3,0000.0,0006.67,0004.49,0004.30
2023-01-21 14:20:00,,0826.0,4.99,0.00,22.5,22.3,00.0,31.1,24.3,09.2,0000.0,0006.76,0004.53,0004.31
2023-01-21 14:21:00,,0826.0,5.02,0.00,22.4,21.8,00.0,31.1,24.2,09.3,0000.0,0007.09,0004.54,0004.31
2023-01-21 14:22:00,,0826.0,4.99,0.00,22.4,21.4,00.0,31.1,24.1,09.3,0000.0,0007.45,0004.54,0004.31
2023-01-21 14:23:00,,0826.0,4.99,0.00,22.4,21.1,00.0,31.1,24.1,09.3,0000.0,0007.66,0004.54,0004.31
2023-01-21 14:24:00,,0826.0,5.01,0.00,22.3,20.7,00.0,31.1,23.9,09.3,0000.0,0007.85,0004.56,0004.32
2023-01-21 14:25:00,,0826.0,4.99,0.00,22.3,20.3,00.0,31.1,23.8,09.3,0000.0,0007.98,0004.55,0004.32
2023-01-21 14:26:00,,0826.0,5.00,0.00,22.2,20.2,00.0,31.1,23.7,09.4,0000.0,0008.12,0004.54,0004.32
2023-01-21 14:27:00,,0826.0,5.01,0.00,22.2,20.2,00.0,31.1,23.7,09.3,0000.0,0008.02,0004.51,0004.33
2023-01-21 14:28:00,,0826.0,5.00,0.00,22.1,20.2,00.0,31.0,23.7,09.4,0000.0,0008.02,0004.50,0004.33
2023-01-21 14:29:00,,0826.0,5.00,0.00,22.1,20.4,00.0,31.0,23.7,09.4,0000.0,0008.05,0004.51,0004.33
2023-01-21 14:30:00,,0826.0,4.99,0.00,22.2,21.4,00.0,31.0,23.9,09.4,0000.0,0008.18,0004.52,0004.34
2023-01-21 14:31:00,,0826.0,4.99,0.00,22.3,22.4,00.0,31.0,24.2,09.3,0000.0,0008.19,0004.50,0004.34
2023-01-21 14:32:00,,0826.0,4.99,0.00,22.4,22.3,00.0,31.0,24.3,09.2,0000.0,0007.95,0004.48,0004.33
2023-01-21 14:33:00,,0826.0,5.01,0.00,22.4,21.9,00.0,31.1,24.2,09.2,0000.0,0007.67,0004.46,0004.32
2023-01-21 14:34:00,,0826.0,5.03,0.00,22.3,21.4,00.0,31.1,24.1,09.1,0000.0,0007.50,0004.48,0004.32
2023-01-21 14:35:00,,0826.0,5.00,0.00,22.3,21.0,00.0,31.1,24.0,09.1,0000.0,0007.30,0004.50,0004.32
2023-01-21 14:36:00,,0826.0,5.01,0.00,22.3,20.7,00.0,31.1,23.9,09.1,0000.0,0007.14,0004.51,0004.32
2023-01-21 14:37:00,,0826.0,5.01,0.00,22.2,20.6,00.0,31.0,23.8,09.1,0000.0,0006.83,0004.55,0004.34
2023-01-21 14:38:00,,0826.0,5.00,0.00,22.2,20.5,00.0,31.0,23.8,09.1,0000.0,0006.94,0004.58,0004.35
2023-01-21 14:39:00,,0826.0,4.99,0.00,22.2,20.5,00.0,31.0,23.8,09.1,0000.0,0007.12,0004.60,0004.36
2023-01-21 14:40:00,,0826.0,4.99,0.00,22.2,20.5,00.0,31.0,23.8,09.1,0000.0,0007.28,0004.60,0004.37
2023-01-21 14:41:00,,0826.1,5.01,0.00,22.2,20.5,00.0,31.0,23.8,09.1,0000.0,0007.20,0004.62,0004.37
2023-01-21 14:42:00,,0826.0,5.00,0.00,22.1,20.8,00.0,31.0,23.8,09.0,0000.0,0006.97,0004.63,0004.38
2023-01-21 14:43:00,,0826.1,5.03,0.00,22.2,21.8,00.0,31.0,24.1,09.0,0000.0,0006.99,0004.65,0004.40
2023-01-21 14:44:00,,0826.1,5.01,0.00,22.3,22.7,00.0,31.0,24.3,08.9,0000.0,0007.20,0004.69,0004.42
2023-01-21 14:45:00,,0826.0,4.99,0.00,22.5,23.0,00.0,31.0,24.5,08.8,0000.0,0007.38,0004.70,0004.43
2023-01-21 14:46:00,,0826.0,4.99,0.00,22.5,22.5,00.0,31.1,24.4,08.7,0000.0,0007.43,0004.72,0004.45
2023-01-21 14:47:00,,0826.0,5.00,0.00,22.5,22.1,00.0,31.1,24.4,08.7,0000.0,0007.51,0004.76,0004.48
2023-01-21 14:48:00,,0826.0,5.01,0.00,22.5,21.7,00.0,31.1,24.3,08.7,0000.0,0007.55,0004.76,0004.48
2023-01-21 14:49:00,,0826.0,5.01,0.00,22.5,21.5,00.0,31.1,24.2,08.7,0000.0,0007.51,0004.77,0004.49
2023-01-21 14:50:00,,0826.1,5.00,0.00,22.5,21.3,00.0,31.1,24.2,08.7,0000.0,0007.44,0004.78,0004.51
2023-01-21 14:51:00,,0826.1,5.00,0.00,22.4,21.1,00.0,31.2,24.2,08.7,0000.0,0007.37,0004.79,0004.52
2023-01-21 14:52:00,,0826.1,5.00,0.00,22.4,21.0,00.0,31.1,24.1,08.7,0000.0,0007.35,0004.79,0004.54
2023-01-21 14:53:00,,0826.1,4.99,0.00,22.4,20.8,00.0,31.1,24.1,08.7,0000.0,0007.49,0004.82,0004.56
2023-01-21 14:54:00,,0826.1,5.00,0.00,22.4,20.7,00.0,31.1,24.0,08.7,0000.0,0007.53,0004.85,0004.57
2023-01-21 14:55:00,,0826.1,5.00,0.00,22.3,20.6,00.0,31.1,24.0,08.7,0000.0,0007.48,0004.85,0004.58
2023-01-21 14:56:00,,0826.1,5.00,0.00,22.3,20.5,00.0,31.1,24.0,08.7,0000.0,0007.40,0004.85,0004.59
2023-01-21 14:57:00,,0826.1,5.00,0.00,22.3,20.4,00.0,31.1,23.9,08.7,0000.0,0007.39,0004.83,0004.59
2023-01-21 14:58:00,,0826.1,5.00,0.00,22.3,20.4,00.0,31.1,23.9,08.8,0000.0,0007.30,0004.81,0004.59
2023-01-21 14:59:00,,0826.1,5.02,0.00,22.3,21.1,00.0,31.1,24.0,08.7,0000.0,0007.11,0004.79,0004.60
